TimeMST,TemperatureF,Dew PointF,Humidity,Sea Level PressureIn,VisibilityMPH,Wind Direction,Wind SpeedMPH,Gust SpeedMPH,PrecipitationIn,Events,Conditions,WindDirDegrees,DateUTC
12:35 AM,36.0,28.4,74,29.89,10.0,Calm,Calm,-,N/A,,Scattered Clouds,0,2013-03-04 07:35:00
12:55 AM,36.9,28.8,72,29.89,10.0,NNW,5.8,-,N/A,,Mostly Cloudy,330,2013-03-04 07:55:00
1:15 AM,36.7,27.7,70,29.88,10.0,NNW,5.8,-,N/A,,Overcast,330,2013-03-04 08:15:00
1:35 AM,37.4,28.0,69,29.90,10.0,NW,4.6,-,N/A,,Overcast,310,2013-03-04 08:35:00
1:55 AM,38.3,28.2,67,29.90,10.0,NW,6.9,-,N/A,,Overcast,320,2013-03-04 08:55:00
2:15 AM,36.7,28.4,72,29.88,10.0,North,6.9,-,N/A,,Overcast,350,2013-03-04 09:15:00
2:35 AM,35.6,29.1,77,29.88,10.0,NW,6.9,-,N/A,,Overcast,320,2013-03-04 09:35:00
2:55 AM,35.6,31.1,84,29.88,10.0,WNW,3.5,-,N/A,,Overcast,300,2013-03-04 09:55:00
3:15 AM,35.8,30.9,82,29.87,10.0,Calm,Calm,-,N/A,,Overcast,0,2013-03-04 10:15:00
3:35 AM,34.0,31.1,89,29.87,10.0,NNE,4.6,-,N/A,,Overcast,30,2013-03-04 10:35:00
3:55 AM,33.4,31.1,91,29.87,10.0,Calm,Calm,-,N/A,,Overcast,0,2013-03-04 10:55:00
4:15 AM,34.2,31.6,90,29.86,10.0,Calm,Calm,-,N/A,,Overcast,0,2013-03-04 11:15:00
4:35 AM,34.2,31.1,89,29.86,10.0,Calm,Calm,-,N/A,,Overcast,0,2013-03-04 11:35:00
4:55 AM,34.5,30.7,86,29.86,10.0,Calm,Calm,-,N/A,,Mostly Cloudy,0,2013-03-04 11:55:00
5:15 AM,33.3,30.7,90,29.87,10.0,Calm,Calm,-,N/A,,Mostly Cloudy,0,2013-03-04 12:15:00
5:35 AM,34.9,29.8,82,29.86,10.0,Calm,Calm,-,N/A,,Scattered Clouds,0,2013-03-04 12:35:00
5:55 AM,32.7,29.3,87,29.86,10.0,North,5.8,-,N/A,,Scattered Clouds,360,2013-03-04 12:55:00
6:15 AM,33.3,30.0,88,29.87,10.0,West,3.5,-,N/A,,Mostly Cloudy,260,2013-03-04 13:15:00
6:35 AM,32.9,30.4,90,29.86,10.0,NNW,5.8,-,N/A,,Overcast,330,2013-03-04 13:35:00
6:55 AM,34.0,30.0,85,29.86,10.0,NNW,8.1,-,N/A,,Scattered Clouds,330,2013-03-04 13:55:00
7:15 AM,34.5,30.6,85,29.86,10.0,North,5.8,-,N/A,,Scattered Clouds,350,2013-03-04 14:15:00
7:35 AM,34.7,30.2,84,29.86,10.0,North,3.5,-,N/A,,Mostly Cloudy,10,2013-03-04 14:35:00
7:55 AM,35.1,30.6,84,29.86,10.0,Calm,Calm,-,N/A,,Overcast,0,2013-03-04 14:55:00
8:15 AM,35.8,30.7,82,29.87,10.0,NNW,5.8,-,N/A,,Mostly Cloudy,340,2013-03-04 15:15:00
8:35 AM,36.7,31.1,80,29.87,10.0,NNW,8.1,-,N/A,,Mostly Cloudy,340,2013-03-04 15:35:00
8:55 AM,40.1,28.8,64,29.86,10.0,SSW,6.9,-,N/A,,Overcast,210,2013-03-04 15:55:00
9:15 AM,41.2,26.8,57,29.86,10.0,SW,12.7,24.2,N/A,,Overcast,220,2013-03-04 16:15:00
9:35 AM,44.1,26.2,50,29.86,10.0,SW,12.7,21.9,N/A,,Overcast,230,2013-03-04 16:35:00
9:55 AM,45.3,27.1,49,29.85,10.0,SW,15.0,-,N/A,,Mostly Cloudy,220,2013-03-04 16:55:00
10:15 AM,43.9,25.7,49,29.85,10.0,SSW,13.8,23.0,N/A,,Scattered Clouds,210,2013-03-04 17:15:00
10:35 AM,48.2,21.7,35,29.85,10.0,West,18.4,31.1,N/A,,Clear,260,2013-03-04 17:35:00
10:55 AM,48.0,22.1,36,29.84,10.0,WSW,21.9,32.2,N/A,,Clear,240,2013-03-04 17:55:00
11:15 AM,48.6,16.2,28,29.85,10.0,West,26.5,34.5,N/A,,Clear,270,2013-03-04 18:15:00
11:55 AM,47.7,22.3,37,29.85,10.0,West,29.9,39.1,N/A,,Clear,260,2013-03-04 18:55:00
12:15 PM,45.0,25.0,46,29.84,10.0,West,20.7,38.0,N/A,,Scattered Clouds,260,2013-03-04 19:15:00
12:35 PM,46.9,18.0,32,29.84,10.0,West,26.5,39.1,N/A,,Clear,260,2013-03-04 19:35:00
12:55 PM,47.1,17.6,31,29.83,10.0,WSW,26.5,41.4,N/A,,Clear,250,2013-03-04 19:55:00
1:15 PM,47.3,17.8,31,29.83,10.0,WSW,31.1,40.3,N/A,,Clear,240,2013-03-04 20:15:00
1:35 PM,47.8,20.1,33,29.84,10.0,WSW,32.2,39.1,N/A,,Clear,240,2013-03-04 20:35:00
1:55 PM,45.5,21.4,38,29.84,10.0,West,26.5,34.5,N/A,,Scattered Clouds,260,2013-03-04 20:55:00
2:35 PM,43.5,19.9,39,29.86,10.0,West,23.0,34.5,N/A,,Mostly Cloudy,270,2013-03-04 21:35:00
2:55 PM,43.5,23.9,46,29.86,10.0,West,15.0,26.5,N/A,,Mostly Cloudy,260,2013-03-04 21:55:00
3:15 PM,43.9,20.5,39,29.88,10.0,WSW,18.4,32.2,N/A,,Mostly Cloudy,250,2013-03-04 22:15:00
3:35 PM,41.4,26.2,55,29.88,10.0,West,15.0,19.6,N/A,,Overcast,280,2013-03-04 22:35:00
3:55 PM,37.8,31.5,78,29.92,2.5,NW,18.4,26.5,N/A,,Overcast,310,2013-03-04 22:55:00
4:15 PM,32.0,28.4,87,29.95,0.8,NNW,16.1,24.2,N/A,,Overcast,340,2013-03-04 23:15:00
4:35 PM,32.2,28.2,85,29.97,3.0,NNW,12.7,20.7,N/A,,Overcast,330,2013-03-04 23:35:00
4:55 PM,33.3,25.9,74,30.00,10.0,NW,9.2,-,N/A,,Overcast,320,2013-03-04 23:55:00
5:15 PM,33.3,23.5,68,30.02,10.0,NW,8.1,17.3,N/A,,Overcast,320,2013-03-05 00:15:00
5:35 PM,32.9,22.6,66,30.05,10.0,NNW,12.7,16.1,N/A,,Overcast,330,2013-03-05 00:35:00
5:55 PM,32.2,19.2,59,30.07,10.0,NW,12.7,24.2,N/A,,Overcast,320,2013-03-05 00:55:00
6:15 PM,32.5,19.4,58,30.09,10.0,NW,9.2,17.3,N/A,,Overcast,320,2013-03-05 01:15:00
6:35 PM,32.0,15.6,51,30.11,10.0,NW,10.4,-,N/A,,Mostly Cloudy,320,2013-03-05 01:35:00
6:55 PM,31.3,12.9,47,30.12,10.0,NW,9.2,-,N/A,,Clear,320,2013-03-05 01:55:00
7:35 PM,30.0,7.7,39,30.14,10.0,NW,12.7,-,N/A,,Clear,320,2013-03-05 02:35:00
7:55 PM,29.5,9.5,43,30.15,10.0,Calm,Calm,-,N/A,,Clear,0,2013-03-05 02:55:00
8:15 PM,28.9,8.8,43,30.15,10.0,West,6.9,-,N/A,,Clear,270,2013-03-05 03:15:00
8:35 PM,30.2,2.5,31,30.17,10.0,NW,4.6,-,N/A,,Clear,320,2013-03-05 03:35:00
8:55 PM,29.3,1.9,31,30.19,10.0,NW,11.5,-,N/A,,Clear,320,2013-03-05 03:55:00
9:15 PM,29.1,1.9,31,30.20,10.0,NW,11.5,-,N/A,,Clear,320,2013-03-05 04:15:00
9:35 PM,27.3,2.1,34,30.20,10.0,NW,11.5,-,N/A,,Clear,320,2013-03-05 04:35:00
9:55 PM,27.0,2.8,36,30.22,10.0,West,5.8,-,N/A,,Clear,260,2013-03-05 04:55:00
10:15 PM,23.2,7.9,52,30.23,10.0,West,4.6,-,N/A,,Clear,280,2013-03-05 05:15:00
10:35 PM,22.5,5.9,49,30.23,10.0,West,6.9,-,N/A,,Clear,280,2013-03-05 05:35:00
10:55 PM,22.1,5.0,48,30.23,10.0,Calm,Calm,-,N/A,,Clear,0,2013-03-05 05:55:00
11:15 PM,20.7,5.7,53,30.23,10.0,WSW,5.8,-,N/A,,Clear,240,2013-03-05 06:15:00
11:35 PM,19.2,7.0,59,30.24,10.0,SW,6.9,-,N/A,,Clear,230,2013-03-05 06:35:00
11:55 PM,18.9,5.9,57,30.24,10.0,WSW,8.1,-,N/A,,Clear,240,2013-03-05 06:55:00